Tracking 19484 objects as of 20-Jan-2019
HD Live streaming from Space Station
objects crossing your sky now

COSMOS 1794

Track COSMOS 1794 now!
10-day predictions
COSMOS 1794 is classified as:


NORAD ID: 17138
Int'l Code: 1986-092A
Perigee: 1,473.5 km
Apogee: 1,506.5 km
Inclination: 74.0 °
Period: 115.6 minutes
Semi major axis: 7860 km
RCS: 0.694 m2 (medium)
Launch date: November 21, 1986
Source: Commonwealth of Independent States (former USSR) (CIS)
Launch site: PLESETSK MISSILE AND SPACE COMPLEX (PKMTR)
aabbcc
Your satellite tracking list
Your tracking list is empty




NASA's NSSDC Master Catalog

Two Line Element Set (TLE):
1 17138U 86092A   19020.22511588 -.00000001  00000-0  10562-3 0  9998
2 17138  74.0141  80.5584 0020961  14.6389  40.7512 12.45622790462805
Source of the keplerian elements: AFSPC